sat.trackr.live / text

‹ back to catalog

STARLINK-5585

NORAD 57333 · 2023-099F

PAYLOAD ACTIVE UNKNOWN

§ Identity

Operator
Country
US
Launch date
2023-07-16
Launch site
AFETR
Launch vehicle
Mass (kg)
RCS (m²)

Purposes: comms

External: N2YO · Heavens-Above · Gunter

§ Orbital elements

Epoch: 2026-09-20T07:47:20.920416Z

Period
94.27 min
Inclination
43.0019°
Eccentricity
0.0001376
Mean motion
15.27579704 rev/d
Perigee alt
482.1 km
Apogee alt
484.0 km
Semi-major
6,861.2 km
B*
4.8725e-5
RAAN
233.1815°
Arg perigee
266.9131°
Mean anomaly
93.1563°
Rev number
17,584

§ Raw data

STARLINK-55851 57333U 23099F   26263.32454769  .00001079  00000+0  48725-4 0  99992 57333  43.0019 233.1815 0001376 266.9131  93.1563 15.27579704175847

JSON: /api/v1/satellites/57333 · /tle

For live sub-satellite position, see the globe view (requires WebGL).

§ Visibility from observer

Set your observer location to see the next 7 days of passes ≥ 10°. The values pass through the URL so the page stays shareable.

No JS? Fill the form by hand. The geolocation button needs JavaScript.